Zurück zum Katalog

STARLINK-11246

AktivKommunikationVLEO
NORAD 60932·PAYLOAD·🇺🇸 United States

Gestartet Aug 31, 2024 von Vandenberg Space Force Base

Loading…

Nächste Überflüge (nächste 24 Stunden)

TLE

AktuellSource: CelesTrak SupGP

Epoche: Sep 14, 2026, 22:58 UTC

1 60932C 24155J   26257.95743056 -.00045721  00000+0 -37662-3 0  2572
2 60932  53.1567 128.0235 0001202  89.9479 206.2469 15.69732157    17

Verfolge STARLINK-11246 in Echtzeit mit AllMySat

Download on the App Store